TimePDT,TemperatureF,Dew PointF,Humidity,Sea Level PressureIn,VisibilityMPH,Wind Direction,Wind SpeedMPH,Gust SpeedMPH,PrecipitationIn,Events,Conditions,WindDirDegrees,DateUTC
12:56 AM,-9999,-9999,N/A,29.84,10.0,SE,3.5,-,N/A,,Clear,140,2013-07-15 07:56:00
1:56 AM,-9999,-9999,N/A,29.84,10.0,SSE,6.9,-,N/A,,Clear,160,2013-07-15 08:56:00
2:56 AM,-9999,-9999,N/A,29.83,10.0,South,6.9,-,N/A,,Clear,180,2013-07-15 09:56:00
3:56 AM,-9999,-9999,N/A,29.83,10.0,WSW,5.8,-,N/A,,Clear,250,2013-07-15 10:56:00
4:56 AM,-9999,-9999,N/A,29.84,10.0,SW,4.6,-,N/A,,Clear,220,2013-07-15 11:56:00
5:56 AM,73.9,34.0,23,29.84,10.0,SSW,6.9,-,N/A,,Partly Cloudy,210,2013-07-15 12:56:00
6:56 AM,77.7,37.4,23,29.85,10.0,WSW,4.6,-,N/A,,Partly Cloudy,250,2013-07-15 13:56:00
7:56 AM,88.0,37.8,17,29.86,10.0,Calm,Calm,-,N/A,,Clear,0,2013-07-15 14:56:00
8:56 AM,91.0,35.2,14,29.86,10.0,Calm,Calm,-,N/A,,Clear,0,2013-07-15 15:56:00
9:56 AM,98.1,36.0,11,29.86,10.0,WSW,5.8,-,N/A,,Partly Cloudy,240,2013-07-15 16:56:00
10:56 AM,102.0,36.0,10,29.85,10.0,Calm,Calm,-,N/A,,Partly Cloudy,0,2013-07-15 17:56:00
11:56 AM,105.1,37.0,10,29.83,10.0,SE,11.5,18.4,N/A,,Partly Cloudy,140,2013-07-15 18:56:00
12:56 PM,107.1,42.1,11,29.82,10.0,SSE,12.7,21.9,N/A,,Partly Cloudy,150,2013-07-15 19:56:00
1:56 PM,107.1,43.0,11,29.79,10.0,South,15.0,24.2,N/A,,Partly Cloudy,170,2013-07-15 20:56:00
2:56 PM,108.0,41.0,10,29.77,10.0,SSE,18.4,27.6,N/A,,Partly Cloudy,160,2013-07-15 21:56:00
3:56 PM,108.0,39.9,10,29.75,10.0,South,17.3,32.2,N/A,,Partly Cloudy,190,2013-07-15 22:56:00
4:56 PM,106.0,42.1,11,29.73,10.0,South,23.0,32.2,N/A,,Partly Cloudy,190,2013-07-15 23:56:00
5:56 PM,104.0,39.0,11,29.65,10.0,South,18.4,25.3,N/A,,Partly Cloudy,180,2013-07-16 00:56:00
6:56 PM,100.9,37.9,11,29.65,10.0,South,16.1,26.5,N/A,,Clear,190,2013-07-16 01:56:00
7:56 PM,97.0,36.0,12,29.68,10.0,South,11.5,-,N/A,,Clear,190,2013-07-16 02:56:00
8:56 PM,91.9,36.0,14,29.70,10.0,South,15.0,-,N/A,,Clear,180,2013-07-16 03:56:00
9:56 PM,88.0,36.0,16,29.73,10.0,South,10.4,-,N/A,,Clear,180,2013-07-16 04:56:00
10:56 PM,87.1,36.0,16,29.74,10.0,SSE,9.2,-,N/A,,Clear,150,2013-07-16 05:56:00
11:56 PM,84.0,33.1,16,29.75,10.0,South,12.7,-,N/A,,Clear,170,2013-07-16 06:56:00